Weather History for Evanston, WY

Change the Weather History Date:

Tuesday, March 19, 2013

  Actual Average Record
Temperature  
Mean Temperature 32 °F 32 °F  
Max Temperature 44 °F 41 °F 62 °F (2007)
Min Temperature 20 °F 23 °F 8 °F (2002)
Degree Days  
Heating Degree Days 33 33  
Month to date heating degree days 604 684  
Since 1 July heating degree days 6199 6692  
Cooling Degree Days 0 0  
Month to date cooling degree days 0 0  
Year to date cooling degree days 0 0  
Moisture  
Dew Point 0 °F    
Average Humidity 36    
Maximum Humidity 60    
Minimum Humidity 11    
Precipitation  
Precipitation 0.00 in 0.03 in 0.03 in (2006)
Month to date precipitation 0.16 0.41  
Year to date precipitation 0.63 1.56  
Sea Level Pressure  
Sea Level Pressure 30.18 in    
Wind  
Wind Speed 6 mph (WSW)    
Max Wind Speed 16 mph    
Max Gust Speed 18 mph    
Visibility 10 miles    
Events      
T = Trace of Precipitation, MM = Missing Value Source: NWS Daily Summary

Daily Weather History Graph

Daily Weather History Graph

Search for Another Location

Airport:

Trip Planner

Search our weather history database for the weather conditions in past years. The results will help you decide how hot, cold, wet, or windy it might be!

Date:

Astronomy

Mar. 19, 2013 Rise Set
Actual Time 7:28 AM MDT 7:35 PM MDT
Civil Twilight 7:01 AM MDT 8:03 PM MDT
Nautical Twilight 6:28 AM MDT 8:35 PM MDT
Astronomical Twilight 5:56 AM MDT 9:08 PM MDT
Moon 12:18 PM MDT (3/19) 2:28 AM MDT (3/19)
Length of Visible Light 13h 02m
Length of Day
12h 06m
Waxing Crescent, 50% of the Moon is Illuminated
Mar 19
Waxing Crescent
Mar 27
Full
Apr 2
Last Quarter
Apr 10
New
Apr 18
First Quarter

Hourly Weather History & Observations

Time (MDT) Temp. Windchill Dew Point Humidity Pressure Visibility Wind Dir Wind Speed Gust Speed Precip Events Conditions
12:53 AM 27.0 °F 20.5 °F 12.0 °F 53% 30.10 in 10.0 mi West 5.8 mph - N/A   Clear
1:53 AM 24.1 °F 13.7 °F 12.0 °F 60% 30.12 in 10.0 mi WSW 10.4 mph - N/A   Clear
2:53 AM 24.1 °F 14.4 °F 9.0 °F 53% 30.12 in 10.0 mi West 9.2 mph - N/A   Clear
3:53 AM 24.1 °F 18.2 °F 5.0 °F 44% 30.12 in 10.0 mi West 4.6 mph - N/A   Clear
4:53 AM 21.9 °F 14.5 °F 8.1 °F 55% 30.14 in 10.0 mi SSW 5.8 mph - N/A   Clear
5:53 AM 21.9 °F 10.4 °F 5.0 °F 48% 30.13 in 10.0 mi WSW 11.5 mph - N/A   Clear
6:53 AM 21.9 °F - 3.0 °F 44% 30.16 in 10.0 mi Calm Calm - N/A   Clear
7:53 AM 21.0 °F 11.4 °F 3.9 °F 48% 30.22 in 10.0 mi South 8.1 mph - N/A   Clear
8:53 AM 26.1 °F 17.6 °F 3.9 °F 39% 30.22 in 10.0 mi South 8.1 mph - N/A   Clear
9:53 AM 30.9 °F 22.8 °F -0.0 °F 27% 30.20 in 10.0 mi SSW 9.2 mph - N/A   Clear
10:53 AM 34.0 °F 27.2 °F -2.9 °F 21% 30.21 in 10.0 mi WSW 8.1 mph - N/A   Clear
11:53 AM 37.0 °F 33.3 °F -7.1 °F 15% 30.22 in 10.0 mi WNW 4.6 mph - N/A   Clear
12:53 PM 39.0 °F 35.7 °F -7.1 °F 14% 30.21 in 10.0 mi Variable 4.6 mph - N/A   Clear
1:53 PM 39.9 °F 35.1 °F -9.0 °F 12% 30.22 in 10.0 mi South 6.9 mph - N/A   Clear
2:53 PM 42.1 °F 39.2 °F -11.0 °F 10% 30.19 in 10.0 mi NNW 4.6 mph - N/A   Clear
3:53 PM 43.0 °F 38.8 °F -6.0 °F 13% 30.17 in 10.0 mi Variable 6.9 mph - N/A   Clear
4:53 PM 42.1 °F 38.4 °F -9.0 °F 11% 30.19 in 10.0 mi West 5.8 mph - N/A   Clear
5:53 PM 43.0 °F 38.8 °F -9.0 °F 11% 30.18 in 10.0 mi SW 6.9 mph - N/A   Clear
6:53 PM 41.0 °F 38.0 °F -8.0 °F 12% 30.19 in 10.0 mi WSW 4.6 mph - N/A   Clear
7:53 PM 37.9 °F - -6.0 °F 15% 30.21 in 10.0 mi Calm Calm - N/A   Clear
8:53 PM 35.1 °F 27.9 °F -2.0 °F 21% 30.21 in 10.0 mi WNW 9.2 mph - N/A   Clear
9:53 PM 33.1 °F 27.7 °F 6.1 °F 32% 30.21 in 10.0 mi North 5.8 mph - N/A   Clear
10:53 PM 30.9 °F - 7.0 °F 37% 30.19 in 10.0 mi Calm Calm - N/A   Clear
11:53 PM 28.0 °F 20.0 °F 10.9 °F 49% 30.18 in 10.0 mi East 8.1 mph - N/A   Clear